Regional Weather Roundup
Issued by NWS Newport/Morehead, NC

Home | Current Version | Previous Version | Text Only | Print | Product List | Glossary On
Versions: 1 2 3 4 5 6 7 8 9 10 11 12 13 14 15 16 17 18 19 20 21 22 23 24 25 26 27 28 29 30 31 32 33 34 35 36 37 38 39 40 41 42 43 44 45 46 47 48 49 50
000
ASUS42 KMHX 052025
RWRMHX
WEATHER ROUNDUP FOR EASTERN NORTH CAROLINA
NATIONAL WEATHER SERVICE NEWPORT/MOREHEAD CITY NC
400 PM EDT THU MAY 05 2016

NOTE: "FAIR" INDICATES FEW OR NO CLOUDS BELOW 12,000 FEET
WITH NO SIGNIFICANT WEATHER AND/OR OBSTRUCTIONS TO VISIBILITY

NCZ015>017-031-032-045>047-102-103-052100-
NORTH COAST

CITY           SKY/WX    TMP DP  RH WIND       PRES   REMARKS
EDENTON        CLOUDY    55  54  95 N12       29.56S
ELIZABETH CITY CLOUDY    54  49  83 N17G28    29.55R
KITTY HAWK     CLOUDY    55  48  80 NE13G22   29.52S
MANTEO         CLOUDY    53  50  91 NE18G25   29.53S

$$

NCZ045>047-081-094-103-104-052100-
CENTRAL COAST

CITY           SKY/WX    TMP DP  RH WIND       PRES   REMARKS
FRISCO         CLOUDY    57  53  86 NE10G22   29.50S
SWANQUARTER    NOT AVBL

$$

NCZ095-097-098-100-101-052100-
SOUTHERN COAST

CITY           SKY/WX    TMP DP  RH WIND       PRES   REMARKS
BEAUFORT       CLOUDY    62  59  90 N7        29.50R
CEDAR ISLAND   NOT AVBL
JACKSONVILLE   TSTM      57  54  89 W7        29.55R VSB 1/2
PINEY ISLAND   LGT SNOW N/A N/A N/A N9        29.49F
WILMINGTON     CLOUDY    59  54  83 N13       29.54R


$$

NCZ011>013-027>030-043-044-078>080-089-090>093-098-052100-
COASTAL PLAIN

CITY           SKY/WX    TMP DP  RH WIND       PRES   REMARKS
AHOSKIE        RAIN      53  51  95 N3        29.57R
CLINTON        PTSUNNY   58  50  76 NW6       29.58R
ELIZABETHTOWN  CLOUDY    61  48  62 NW10      29.58R
GOLDSBORO      CLOUDY    55  55 100 NW9       29.54S
GREENVILLE     HVY RAIN  55  55 100 N9        29.59R
HAVELOCK       CLOUDY    60  56  86 N10       29.53R THUNDER
KENANSVILLE    CLOUDY    57  50  79 NW10G17   29.58R
KINSTON        HVY RAIN  55  55 100 NW10G17   29.56R
NEW BERN       TSTM      57  54  89 NE14      29.54R FOG
RICHLANDS      LGT RAIN  55  55 100 NW9G18    29.55R
ROCKY MOUNT    RAIN      54  52  93 NW6       29.57S FOG
WASHINGTON     LGT RAIN  55  53  92 NE7       29.55R
WHITEVILLE     NOT AVBL

$$

AMZ130-135-150-152-154-156-158-170-250-252-270-ANZ085-086-088-633-658-670-052100-
MARINE OBSERVATIONS

STATION/POSITION TIME  TEMP    WIND        PRES    WAVE   SWELL
                       AIR SEA DIR/SP/G            HT/PER HT/PER
                 (UTC) (F)     (DEG/KT/KT) (MB)    (FT/S) (FT/S)
CHESAPEAKE LIGHT 2000   50      30/ 30/ 31 1000.8
64 E VA BEACH    1950   51 52   20/ 21/ 25  998.7    7/ 7   3/16
DUCK             2000   52 62   20/ 25/ 30  999.0
2 E DUCK         1911      59                N/A     6/ 6
OREGON INLET     2000   53 61  360/ 13/ 22  999.1
13E OREGON INLT  2000      55                N/A     7/ 7   2/18
HATTERAS CG      2000   57 68   20/ 17/ 23  998.2
DIAMOND BUOY     1950   58 77   30/ 21/ 25  998.0    6/ 6
CAPE LOOKOUT     2000   61      70/ 14/ 15  998.6
BEAUFORT LAB     2000   62 69   40/  6/  8  998.2
30 SE NEW RVR IN 1925      73                N/A     4/ 6
27 SE WRIGHTSVLE 2008   64 72  320/ 25/ 35  998.3
5 SE WRIGHTSVLE  2008   61 70  340/ 16/ 27 1000.7
225 S CAPE HAT   1950   74 74  240/ 17/ 21 1001.1    7/ 8   2/14
41 SE CHARLESTON 1950   68 74  270/ 21/ 27 1001.5    6/ 6

$$



USA.gov is the U.S. government's official web portal to all federal, state and local government web resources and services.